TOM910 EGPH-EGLL

Flight info

Callsign TOM910
Flight time 0h 57m
Altitude 31000
Route GOSAM P600 FENIK L612 NAVSO DCT AKOMU DCT VAMEB DCT NUGRA
Aircraft B738/M-SDE2E3FGHIRWXY/LB1

Departure

Time 2026-05-07 19:00
Airport Edinburgh Airport (EGPH)

Arrival

Time 2026-05-07 19:57
Airport London Heathrow Airport (EGLL)
Time Latitude Longitude Altitude Speed Heading
2026-05-07 18:39 55.94612 -3.36634 114 ft 0 kts 89°
2026-05-07 18:52 55.94612 -3.36653 112 ft 4 kts 86°
2026-05-07 18:52 55.94607 -3.36700 111 ft 4 kts 64°
2026-05-07 18:52 55.94592 -3.36731 112 ft 4 kts 10°
2026-05-07 18:53 55.94586 -3.36733 115 ft 0 kts 359°
2026-05-07 18:54 55.94589 -3.36733 115 ft 2 kts 359°
2026-05-07 18:55 55.94630 -3.36734 115 ft 11 kts 359°
2026-05-07 18:55 55.94725 -3.36738 115 ft 15 kts 358°
2026-05-07 18:55 55.94809 -3.36775 115 ft 12 kts 358°
2026-05-07 18:55 55.94880 -3.36791 115 ft 6 kts 339°
2026-05-07 18:56 55.94894 -3.36804 114 ft 0 kts 330°
2026-05-07 18:56 55.94900 -3.36811 112 ft 5 kts 330°
2026-05-07 18:56 55.94956 -3.36804 112 ft 12 kts 51°
2026-05-07 18:57 55.95008 -3.36650 115 ft 17 kts 59°
2026-05-07 18:57 55.95078 -3.36444 112 ft 21 kts 59°
2026-05-07 18:57 55.95154 -3.36220 114 ft 21 kts 59°
2026-05-07 18:57 55.95227 -3.36004 115 ft 20 kts 59°
2026-05-07 18:58 55.95298 -3.35792 114 ft 20 kts 59°
2026-05-07 18:58 55.95367 -3.35587 113 ft 19 kts 58°
2026-05-07 18:58 55.95416 -3.35449 114 ft 10 kts 58°
2026-05-07 18:58 55.95465 -3.35408 115 ft 8 kts 344°
2026-05-07 18:59 55.95497 -3.35438 114 ft 8 kts 327°
2026-05-07 18:59 55.95546 -3.35499 110 ft 10 kts 328°
2026-05-07 18:59 55.95554 -3.35614 111 ft 18 kts 240°
2026-05-07 18:59 55.95361 -3.36186 108 ft 98 kts 239°
2026-05-07 19:00 55.94858 -3.37606 208 ft 165 kts 236°
2026-05-07 19:00 55.94059 -3.40021 1695 ft 170 kts 236°
2026-05-07 19:00 55.93649 -3.41218 2481 ft 174 kts 234°
2026-05-07 19:00 55.92972 -3.43187 3019 ft 198 kts 236°
2026-05-07 19:01 55.92204 -3.45449 3323 ft 229 kts 236°
2026-05-07 19:01 55.91319 -3.48014 3811 ft 252 kts 236°
2026-05-07 19:01 55.90446 -3.50749 4874 ft 251 kts 246°
2026-05-07 19:01 55.90055 -3.53772 5730 ft 251 kts 259°
2026-05-07 19:02 55.89796 -3.56851 6296 ft 251 kts 259°
2026-05-07 19:02 55.89516 -3.59964 7167 ft 256 kts 258°
2026-05-07 19:02 55.89218 -3.63092 8150 ft 257 kts 258°
2026-05-07 19:02 55.88911 -3.66255 9064 ft 260 kts 258°
2026-05-07 19:03 55.88596 -3.69441 9989 ft 263 kts 257°
2026-05-07 19:03 55.88266 -3.72715 10527 ft 280 kts 257°
2026-05-07 19:03 55.87900 -3.76303 10714 ft 307 kts 257°
2026-05-07 19:03 55.87505 -3.80200 10907 ft 332 kts 258°
2026-05-07 19:04 55.87074 -3.84349 11302 ft 346 kts 254°
2026-05-07 19:04 55.86021 -3.88181 12018 ft 347 kts 228°
2026-05-07 19:04 55.84173 -3.90912 12934 ft 348 kts 212°
2026-05-07 19:04 55.81956 -3.92609 13608 ft 356 kts 198°
2026-05-07 19:05 55.79541 -3.93762 14330 ft 360 kts 196°
2026-05-07 19:05 55.77103 -3.94863 15047 ft 363 kts 196°
2026-05-07 19:05 55.74645 -3.95969 15770 ft 365 kts 196°
2026-05-07 19:05 55.72170 -3.97099 16426 ft 369 kts 196°
2026-05-07 19:06 55.69651 -3.98266 16711 ft 382 kts 196°
2026-05-07 19:06 55.64350 -4.00749 17453 ft 400 kts 196°
2026-05-07 19:06 55.61651 -4.02015 18123 ft 401 kts 196°
2026-05-07 19:07 55.58947 -4.03283 18676 ft 403 kts 196°
2026-05-07 19:07 55.56253 -4.04545 19148 ft 407 kts 196°
2026-05-07 19:07 55.53499 -4.05814 19630 ft 410 kts 194°
2026-05-07 19:07 55.50645 -4.06304 20089 ft 418 kts 179°
2026-05-07 19:08 55.47759 -4.05503 20606 ft 423 kts 168°
2026-05-07 19:08 55.44984 -4.03646 21050 ft 431 kts 159°
2026-05-07 19:08 55.42142 -4.01945 21334 ft 431 kts 172°
2026-05-07 19:08 55.39168 -4.01268 21811 ft 431 kts 177°
2026-05-07 19:09 55.36198 -4.00850 22266 ft 432 kts 179°
2026-05-07 19:09 55.33188 -4.00496 22649 ft 436 kts 179°
2026-05-07 19:09 55.30142 -4.00155 23028 ft 439 kts 179°
2026-05-07 19:09 55.27077 -3.99823 23426 ft 442 kts 179°
2026-05-07 19:10 55.23986 -3.99495 23772 ft 444 kts 179°
2026-05-07 19:10 55.20907 -3.99176 24123 ft 445 kts 179°
2026-05-07 19:10 55.17810 -3.98862 24436 ft 447 kts 179°
2026-05-07 19:10 55.14721 -3.98557 24724 ft 450 kts 179°
2026-05-07 19:11 55.11586 -3.98254 25067 ft 451 kts 179°
2026-05-07 19:11 55.08452 -3.97959 25404 ft 452 kts 179°
2026-05-07 19:11 55.05300 -3.97670 25717 ft 453 kts 179°
2026-05-07 19:11 55.02139 -3.97388 26000 ft 454 kts 179°
2026-05-07 19:12 54.98998 -3.96560 26198 ft 461 kts 167°
2026-05-07 19:12 54.95963 -3.94715 26543 ft 461 kts 161°
2026-05-07 19:12 54.93002 -3.92610 26938 ft 459 kts 160°
2026-05-07 19:12 54.90116 -3.90479 27645 ft 452 kts 160°
2026-05-07 19:13 54.87218 -3.88319 27924 ft 455 kts 159°
2026-05-07 19:13 54.84399 -3.85711 28030 ft 463 kts 148°
2026-05-07 19:13 54.81806 -3.82399 28528 ft 459 kts 146°
2026-05-07 19:13 54.79280 -3.79070 29240 ft 451 kts 145°
2026-05-07 19:14 54.76799 -3.75808 30107 ft 441 kts 146°
2026-05-07 19:14 54.74390 -3.72681 30735 ft 434 kts 146°
2026-05-07 19:14 54.71961 -3.69566 30953 ft 435 kts 147°
2026-05-07 19:14 54.69520 -3.66467 30963 ft 435 kts 146°
2026-05-07 19:15 54.64608 -3.60276 30989 ft 438 kts 147°
2026-05-07 19:15 54.59688 -3.54100 30987 ft 440 kts 147°
2026-05-07 19:16 54.54716 -3.47872 30991 ft 442 kts 147°
2026-05-07 19:16 54.49735 -3.41650 30995 ft 441 kts 147°
2026-05-07 19:17 54.44783 -3.35481 30978 ft 441 kts 147°
2026-05-07 19:17 54.39812 -3.29309 30982 ft 440 kts 147°
2026-05-07 19:18 54.34843 -3.23157 30996 ft 440 kts 147°
2026-05-07 19:18 54.29913 -3.17073 30981 ft 439 kts 147°
2026-05-07 19:19 54.24945 -3.10959 30988 ft 438 kts 147°
2026-05-07 19:19 54.19991 -3.04883 30991 ft 438 kts 147°
2026-05-07 19:20 54.15055 -2.98846 31002 ft 439 kts 147°
2026-05-07 19:20 54.10076 -2.92774 31006 ft 440 kts 147°
2026-05-07 19:21 54.05083 -2.86700 31005 ft 441 kts 147°
2026-05-07 19:21 53.99948 -2.80962 31004 ft 440 kts 155°
2026-05-07 19:22 53.94238 -2.77530 31006 ft 438 kts 165°
2026-05-07 19:22 53.88373 -2.74532 31015 ft 440 kts 165°
2026-05-07 19:23 53.82485 -2.71476 31010 ft 442 kts 165°
2026-05-07 19:23 53.76642 -2.68412 31016 ft 443 kts 165°
2026-05-07 19:24 53.70738 -2.65311 31008 ft 443 kts 165°
2026-05-07 19:24 53.64831 -2.62219 31012 ft 445 kts 165°
2026-05-07 19:25 53.58904 -2.59127 31014 ft 445 kts 165°
2026-05-07 19:25 53.52979 -2.56047 31015 ft 445 kts 165°
2026-05-07 19:26 53.47090 -2.52991 31011 ft 445 kts 165°
2026-05-07 19:26 53.41174 -2.49931 31021 ft 445 kts 165°
2026-05-07 19:27 53.35284 -2.46895 31020 ft 444 kts 165°
2026-05-07 19:27 53.29374 -2.43856 31021 ft 444 kts 165°
2026-05-07 19:28 53.23470 -2.40829 31021 ft 443 kts 165°
2026-05-07 19:28 53.17555 -2.37805 31018 ft 444 kts 165°
2026-05-07 19:29 53.11652 -2.34796 31022 ft 444 kts 165°
2026-05-07 19:29 53.05739 -2.31790 31019 ft 445 kts 165°
2026-05-07 19:30 53.00074 -2.27731 31063 ft 448 kts 150°
2026-05-07 19:30 52.94822 -2.22063 31026 ft 451 kts 149°
2026-05-07 19:31 52.89557 -2.16368 31027 ft 452 kts 149°
2026-05-07 19:31 52.84272 -2.10788 31028 ft 454 kts 150°
2026-05-07 19:32 52.78912 -2.05206 31028 ft 455 kts 150°
2026-05-07 19:32 52.73529 -1.99627 31014 ft 456 kts 150°
2026-05-07 19:33 52.68130 -1.94044 31029 ft 457 kts 150°
2026-05-07 19:33 52.62736 -1.88483 30246 ft 464 kts 150°
2026-05-07 19:34 52.60003 -1.85669 29416 ft 461 kts 150°
2026-05-07 19:34 52.57285 -1.82875 28563 ft 459 kts 150°
2026-05-07 19:34 52.54579 -1.80097 27766 ft 457 kts 150°
2026-05-07 19:34 52.51898 -1.77347 27182 ft 450 kts 150°
2026-05-07 19:35 52.49287 -1.74673 26575 ft 444 kts 150°
2026-05-07 19:35 52.46682 -1.72011 25966 ft 439 kts 150°
2026-05-07 19:35 52.44096 -1.69373 25376 ft 434 kts 150°
2026-05-07 19:35 52.41536 -1.66764 24791 ft 430 kts 150°
2026-05-07 19:36 52.39003 -1.64187 24206 ft 426 kts 150°
2026-05-07 19:36 52.36493 -1.61638 23629 ft 423 kts 150°
2026-05-07 19:36 52.34002 -1.59110 22946 ft 419 kts 150°
2026-05-07 19:36 52.31535 -1.56609 22356 ft 415 kts 150°
2026-05-07 19:37 52.29096 -1.54140 21773 ft 410 kts 150°
2026-05-07 19:37 52.26713 -1.51730 21205 ft 405 kts 150°
2026-05-07 19:37 52.24327 -1.49321 20646 ft 401 kts 150°
2026-05-07 19:37 52.21963 -1.46935 20073 ft 397 kts 150°
2026-05-07 19:38 52.19733 -1.44313 19677 ft 393 kts 143°
2026-05-07 19:38 52.17655 -1.41424 19297 ft 395 kts 141°
2026-05-07 19:38 52.15586 -1.38414 18909 ft 401 kts 140°
2026-05-07 19:38 52.13503 -1.35385 18510 ft 401 kts 140°
2026-05-07 19:39 52.11416 -1.32394 18060 ft 397 kts 141°
2026-05-07 19:39 52.09366 -1.29497 17632 ft 393 kts 141°
2026-05-07 19:39 52.07307 -1.26619 17216 ft 389 kts 141°
2026-05-07 19:39 52.05918 -1.24688 16947 ft 386 kts 141°
2026-05-07 19:40 52.03224 -1.20954 16419 ft 383 kts 141°
2026-05-07 19:40 52.01198 -1.18150 15879 ft 376 kts 141°
2026-05-07 19:40 51.99242 -1.15442 15367 ft 362 kts 141°
2026-05-07 19:40 51.97380 -1.12870 14873 ft 350 kts 142°
2026-05-07 19:41 51.95554 -1.10351 14425 ft 338 kts 142°
2026-05-07 19:41 51.93811 -1.07948 14216 ft 320 kts 142°
2026-05-07 19:41 51.92163 -1.05677 14116 ft 301 kts 142°
2026-05-07 19:41 51.90611 -1.03540 14000 ft 285 kts 142°
2026-05-07 19:42 51.89116 -1.01486 13573 ft 281 kts 142°
2026-05-07 19:42 51.87628 -0.99446 13137 ft 277 kts 142°
2026-05-07 19:42 51.86161 -0.97435 12650 ft 276 kts 142°
2026-05-07 19:42 51.84897 -0.95172 12135 ft 278 kts 121°
2026-05-07 19:43 51.84037 -0.92389 11730 ft 275 kts 118°
2026-05-07 19:43 51.83209 -0.89603 11273 ft 274 kts 118°
2026-05-07 19:43 51.82381 -0.86832 10824 ft 272 kts 118°
2026-05-07 19:43 51.81555 -0.84088 10386 ft 271 kts 118°
2026-05-07 19:44 51.80729 -0.81362 9948 ft 269 kts 118°
2026-05-07 19:44 51.79900 -0.78639 9462 ft 269 kts 118°
2026-05-07 19:44 51.79084 -0.75970 8997 ft 268 kts 117°
2026-05-07 19:44 51.78261 -0.73285 8516 ft 266 kts 117°
2026-05-07 19:45 51.77439 -0.70609 8108 ft 263 kts 117°
2026-05-07 19:45 51.76648 -0.68037 8058 ft 249 kts 117°
2026-05-07 19:45 51.75885 -0.65555 8051 ft 246 kts 117°
2026-05-07 19:45 51.75115 -0.63059 8057 ft 250 kts 117°
2026-05-07 19:46 51.74340 -0.60551 8052 ft 250 kts 117°
2026-05-07 19:46 51.73818 -0.58861 8044 ft 249 kts 117°
2026-05-07 19:46 51.72891 -0.56528 8020 ft 246 kts 139°
2026-05-07 19:46 51.71534 -0.54958 8056 ft 242 kts 149°
2026-05-07 19:47 51.70095 -0.53555 8056 ft 242 kts 150°
2026-05-07 19:47 51.68617 -0.52253 8029 ft 242 kts 162°
2026-05-07 19:47 51.66979 -0.52003 7889 ft 238 kts 193°
2026-05-07 19:47 51.65517 -0.53126 7506 ft 235 kts 223°
2026-05-07 19:48 51.64622 -0.55306 7140 ft 235 kts 248°
2026-05-07 19:48 51.64047 -0.57795 6830 ft 235 kts 250°
2026-05-07 19:48 51.63505 -0.60282 6366 ft 238 kts 251°
2026-05-07 19:48 51.62959 -0.62802 5979 ft 236 kts 251°
2026-05-07 19:49 51.62423 -0.65302 5585 ft 236 kts 251°
2026-05-07 19:49 51.61889 -0.67771 5164 ft 236 kts 248°
2026-05-07 19:49 51.61146 -0.70107 5050 ft 230 kts 240°
2026-05-07 19:49 51.60375 -0.72366 5016 ft 232 kts 240°
2026-05-07 19:50 51.59596 -0.74665 5011 ft 235 kts 241°
2026-05-07 19:50 51.58812 -0.76982 4962 ft 234 kts 241°
2026-05-07 19:50 51.58040 -0.79263 4654 ft 232 kts 240°
2026-05-07 19:50 51.57057 -0.81218 4363 ft 223 kts 212°
2026-05-07 19:51 51.55664 -0.81976 4275 ft 202 kts 184°
2026-05-07 19:51 51.54312 -0.82111 4135 ft 191 kts 181°
2026-05-07 19:51 51.52985 -0.82207 4054 ft 192 kts 179°
2026-05-07 19:51 51.51711 -0.81688 3944 ft 188 kts 143°
2026-05-07 19:52 51.50869 -0.80165 3661 ft 180 kts 122°
2026-05-07 19:52 51.50192 -0.78446 3251 ft 183 kts 121°
2026-05-07 19:52 51.49534 -0.76742 3014 ft 173 kts 121°
2026-05-07 19:52 51.48944 -0.75192 2997 ft 162 kts 121°
2026-05-07 19:53 51.48352 -0.73633 2997 ft 162 kts 121°
2026-05-07 19:53 51.47790 -0.72071 2953 ft 163 kts 112°
2026-05-07 19:53 51.47711 -0.70272 2806 ft 164 kts 85°
2026-05-07 19:53 51.47733 -0.68436 2565 ft 164 kts 92°
2026-05-07 19:54 51.47718 -0.66618 2332 ft 163 kts 92°
2026-05-07 19:54 51.47715 -0.64819 2117 ft 161 kts 91°
2026-05-07 19:54 51.47717 -0.63017 1911 ft 161 kts 92°
2026-05-07 19:54 51.47720 -0.61202 1678 ft 163 kts 91°
2026-05-07 19:55 51.47723 -0.59378 1457 ft 163 kts 91°
2026-05-07 19:55 51.47727 -0.57608 1270 ft 151 kts 91°
2026-05-07 19:55 51.47731 -0.55977 1032 ft 145 kts 92°
2026-05-07 19:55 51.47734 -0.54402 828 ft 138 kts 92°
2026-05-07 19:56 51.47738 -0.52857 653 ft 138 kts 91°
2026-05-07 19:56 51.47742 -0.51345 478 ft 136 kts 92°
2026-05-07 19:56 51.47747 -0.49822 279 ft 136 kts 92°
2026-05-07 19:56 51.47751 -0.48333 101 ft 131 kts 92°
2026-05-07 19:57 51.47750 -0.47068 86 ft 85 kts 90°
2026-05-07 19:57 51.47756 -0.46334 89 ft 38 kts 89°
2026-05-07 19:57 51.47672 -0.46111 86 ft 10 kts 146°
2026-05-07 19:57 51.47656 -0.46089 89 ft 0 kts 140°
2026-05-07 19:58 51.47624 -0.46059 85 ft 11 kts 162°
2026-05-07 19:59 51.47528 -0.46103 86 ft 18 kts 231°
2026-05-07 19:59 51.47516 -0.46315 85 ft 20 kts 270°
2026-05-07 19:59 51.47516 -0.46534 85 ft 19 kts 270°
2026-05-07 19:59 51.47500 -0.46741 90 ft 19 kts 227°
2026-05-07 20:00 51.47377 -0.46730 85 ft 18 kts 170°
2026-05-07 20:00 51.47255 -0.46716 85 ft 17 kts 155°
2026-05-07 20:00 51.47239 -0.46562 85 ft 14 kts 89°
2026-05-07 20:00 51.47226 -0.46410 88 ft 14 kts 129°
2026-05-07 20:01 51.47154 -0.46316 85 ft 13 kts 142°
2026-05-07 20:01 51.47088 -0.46253 87 ft 5 kts 149°
2026-05-07 20:01 51.47056 -0.46222 87 ft 5 kts 148°
2026-05-07 20:01 51.47022 -0.46208 85 ft 5 kts 194°
2026-05-07 20:02 51.47001 -0.46248 87 ft 2 kts 242°
2026-05-07 20:02 51.46993 -0.46267 87 ft 2 kts 236°
2026-05-07 20:02 51.46987 -0.46283 89 ft 2 kts 236°
2026-05-07 20:02 51.46980 -0.46298 89 ft 2 kts 236°
2026-05-07 20:03 51.46977 -0.46305 88 ft 0 kts 235°